owner,sensor,date,latitude,longitude,vertical_datum,sea_water_practical_salinity,qcFlag 
SCCF RECON,ioos:station:SCCF:53:1,2011-03-01T00:00:00Z,26.6493,-81.8810,2.166,16.1,1111122 
SCCF RECON,ioos:station:SCCF:53:1,2011-03-01T01:00:00Z,26.6493,-81.8810,2.17,15.78,1111122 
SCCF RECON,ioos:station:SCCF:53:1,2011-03-01T02:00:00Z,26.6493,-81.8810,2.2,15.88,1111122 
SCCF RECON,ioos:station:SCCF:53:1,2011-03-01T03:00:00Z,26.6493,-81.8810,2.24,16.09,1111122 
SCCF RECON,ioos:station:SCCF:53:1,2011-03-01T04:00:00Z,26.6493,-81.8810,2.27,16.05,1111122 
SCCF RECON,ioos:station:SCCF:53:1,2011-03-01T05:00:00Z,26.6493,-81.8810,2.28,16.04,1111122 
SCCF RECON,ioos:station:SCCF:53:1,2011-03-01T06:00:00Z,26.6493,-81.8810,2.254,15.84,1111122 
SCCF RECON,ioos:station:SCCF:53:1,2011-03-01T07:00:00Z,26.6493,-81.8810,2.2,15.66,1111122 
SCCF RECON,ioos:station:SCCF:53:1,2011-03-01T08:00:00Z,26.6493,-81.8810,2.15,15.15,1111122 
SCCF RECON,ioos:station:SCCF:53:1,2011-03-01T09:00:00Z,26.6493,-81.8810,2.1,14.98,1111122 
SCCF RECON,ioos:station:SCCF:53:1,2011-03-01T10:00:00Z,26.6493,-81.8810,2.05,14.57,1111122 
SCCF RECON,ioos:station:SCCF:53:1,2011-03-01T11:00:00Z,26.6493,-81.8810,1.99,14.17,1111122 
SCCF RECON,ioos:station:SCCF:53:1,2011-03-01T12:00:00Z,26.6493,-81.8810,1.95,13.9,1111122 
SCCF RECON,ioos:station:SCCF:53:1,2011-03-01T13:00:00Z,26.6493,-81.8810,1.91,13.6,1111122 
SCCF RECON,ioos:station:SCCF:53:1,2011-03-01T14:00:00Z,26.6493,-81.8810,1.877,13.48,1111122 
SCCF RECON,ioos:station:SCCF:53:1,2011-03-01T15:00:00Z,26.6493,-81.8810,1.87,13.5,1111122 
SCCF RECON,ioos:station:SCCF:53:1,2011-03-01T16:00:00Z,26.6493,-81.8810,1.9,13.61,1111122 
SCCF RECON,ioos:station:SCCF:53:1,2011-03-01T17:00:00Z,26.6493,-81.8810,1.94,13.81,1111122 
SCCF RECON,ioos:station:SCCF:53:1,2011-03-01T18:00:00Z,26.6493,-81.8810,1.972,13.82,1111122 
SCCF RECON,ioos:station:SCCF:53:1,2011-03-01T19:00:00Z,26.6493,-81.8810,2.004,14.09,1111122 
SCCF RECON,ioos:station:SCCF:53:1,2011-03-01T20:00:00Z,26.6493,-81.8810,2.034,14.5,1111122 
SCCF RECON,ioos:station:SCCF:53:1,2011-03-01T21:00:00Z,26.6493,-81.8810,2.054,14.58,1111122 
SCCF RECON,ioos:station:SCCF:53:1,2011-03-01T22:00:00Z,26.6493,-81.8810,2.054,14.64,1111122 
SCCF RECON,ioos:station:SCCF:53:1,2011-03-01T23:00:00Z,26.6493,-81.8810,2.03,14.28,1111122 
SCCF RECON,ioos:station:SCCF:53:1,2011-03-02T00:00:00Z,26.6493,-81.8810,2.008,14.12,1111122 
SCCF RECON,ioos:station:SCCF:53:1,2011-03-02T01:00:00Z,26.6493,-81.8810,2.0,13.99,1111122 
SCCF RECON,ioos:station:SCCF:53:1,2011-03-02T02:00:00Z,26.6493,-81.8810,2.047,14.12,1111122 
SCCF RECON,ioos:station:SCCF:53:1,2011-03-02T03:00:00Z,26.6493,-81.8810,2.097,14.4,1111122 
SCCF RECON,ioos:station:SCCF:53:1,2011-03-02T04:00:00Z,26.6493,-81.8810,2.127,15.03,1111122 
SCCF RECON,ioos:station:SCCF:53:1,2011-03-02T05:00:00Z,26.6493,-81.8810,2.172,15.51,1111122 
SCCF RECON,ioos:station:SCCF:53:1,2011-03-02T06:00:00Z,26.6493,-81.8810,2.199,16.1,1111122 
SCCF RECON,ioos:station:SCCF:53:1,2011-03-02T07:00:00Z,26.6493,-81.8810,2.183,15.9,1111122 
SCCF RECON,ioos:station:SCCF:53:1,2011-03-02T08:00:00Z,26.6493,-81.8810,2.141,15.14,1111122 
SCCF RECON,ioos:station:SCCF:53:1,2011-03-02T09:00:00Z,26.6493,-81.8810,2.09,14.94,1111122 
SCCF RECON,ioos:station:SCCF:53:1,2011-03-02T10:00:00Z,26.6493,-81.8810,2.04,14.37,1111122 
SCCF RECON,ioos:station:SCCF:53:1,2011-03-02T11:00:00Z,26.6493,-81.8810,2.0,13.95,1111122 
SCCF RECON,ioos:station:SCCF:53:1,2011-03-02T12:00:00Z,26.6493,-81.8810,1.95,13.54,1111122 
SCCF RECON,ioos:station:SCCF:53:1,2011-03-02T13:00:00Z,26.6493,-81.8810,1.91,13.24,1111122 
SCCF RECON,ioos:station:SCCF:53:1,2011-03-02T14:00:00Z,26.6493,-81.8810,1.87,13.05,1111122 
SCCF RECON,ioos:station:SCCF:53:1,2011-03-02T15:00:00Z,26.6493,-81.8810,1.83,12.79,1111122 
SCCF RECON,ioos:station:SCCF:53:1,2011-03-02T16:00:00Z,26.6493,-81.8810,1.82,12.77,1111122 
SCCF RECON,ioos:station:SCCF:53:1,2011-03-02T17:00:00Z,26.6493,-81.8810,1.847,13.37,1111122 
SCCF RECON,ioos:station:SCCF:53:1,2011-03-02T18:00:00Z,26.6493,-81.8810,1.88,13.88,1111122 
SCCF RECON,ioos:station:SCCF:53:1,2011-03-02T19:00:00Z,26.6493,-81.8810,1.901,14.7,1111122 
SCCF RECON,ioos:station:SCCF:53:1,2011-03-02T20:00:00Z,26.6493,-81.8810,1.928,15.53,1111122 
SCCF RECON,ioos:station:SCCF:53:1,2011-03-02T21:00:00Z,26.6493,-81.8810,1.932,14.89,1111122 
SCCF RECON,ioos:station:SCCF:53:1,2011-03-02T22:00:00Z,26.6493,-81.8810,1.896,14.56,1111122 
SCCF RECON,ioos:station:SCCF:53:1,2011-03-02T23:00:00Z,26.6493,-81.8810,1.861,14.25,1111122 
SCCF RECON,ioos:station:SCCF:53:1,2011-03-03T00:00:00Z,26.6493,-81.8810,1.838,13.5,1111122 
SCCF RECON,ioos:station:SCCF:53:1,2011-03-03T01:00:00Z,26.6493,-81.8810,1.81,13.36,1111122 
SCCF RECON,ioos:station:SCCF:53:1,2011-03-03T02:00:00Z,26.6493,-81.8810,1.792,13.18,1111122 
SCCF RECON,ioos:station:SCCF:53:1,2011-03-03T03:00:00Z,26.6493,-81.8810,1.816,13.75,1111122 
SCCF RECON,ioos:station:SCCF:53:1,2011-03-03T04:00:00Z,26.6493,-81.8810,1.862,14.43,1111122 
SCCF RECON,ioos:station:SCCF:53:1,2011-03-03T05:00:00Z,26.6493,-81.8810,1.9,15.46,1111122 
SCCF RECON,ioos:station:SCCF:53:1,2011-03-03T06:00:00Z,26.6493,-81.8810,1.94,16.42,1111122 
SCCF RECON,ioos:station:SCCF:53:1,2011-03-03T07:00:00Z,26.6493,-81.8810,1.981,16.96,1111122 
SCCF RECON,ioos:station:SCCF:53:1,2011-03-03T08:00:00Z,26.6493,-81.8810,2.01,17.29,1111122 
SCCF RECON,ioos:station:SCCF:53:1,2011-03-03T09:00:00Z,26.6493,-81.8810,1.99,17.37,1111122 
SCCF RECON,ioos:station:SCCF:53:1,2011-03-03T10:00:00Z,26.6493,-81.8810,1.94,15.7,1111122 
SCCF RECON,ioos:station:SCCF:53:1,2011-03-03T11:00:00Z,26.6493,-81.8810,1.91,15.22,1111122 
SCCF RECON,ioos:station:SCCF:53:1,2011-03-03T12:00:00Z,26.6493,-81.8810,1.876,14.76,1111122 
SCCF RECON,ioos:station:SCCF:53:1,2011-03-03T13:00:00Z,26.6493,-81.8810,1.841,14.32,1111122 
SCCF RECON,ioos:station:SCCF:53:1,2011-03-03T14:00:00Z,26.6493,-81.8810,1.811,14.14,1111122 
SCCF RECON,ioos:station:SCCF:53:1,2011-03-03T15:00:00Z,26.6493,-81.8810,1.798,14.32,1111122 
SCCF RECON,ioos:station:SCCF:53:1,2011-03-03T16:00:00Z,26.6493,-81.8810,1.83,14.92,1111122 
SCCF RECON,ioos:station:SCCF:53:1,2011-03-03T17:00:00Z,26.6493,-81.8810,1.872,15.59,1111122 
SCCF RECON,ioos:station:SCCF:53:1,2011-03-03T18:00:00Z,26.6493,-81.8810,1.897,16.46,1111122 
SCCF RECON,ioos:station:SCCF:53:1,2011-03-03T19:00:00Z,26.6493,-81.8810,1.938,17.36,1111122 
SCCF RECON,ioos:station:SCCF:53:1,2011-03-03T20:00:00Z,26.6493,-81.8810,1.981,17.44,1111122 
SCCF RECON,ioos:station:SCCF:53:1,2011-03-03T21:00:00Z,26.6493,-81.8810,2.002,17.96,1111122 
SCCF RECON,ioos:station:SCCF:53:1,2011-03-03T22:00:00Z,26.6493,-81.8810,2.002,18.11,1111122 
SCCF RECON,ioos:station:SCCF:53:1,2011-03-03T23:00:00Z,26.6493,-81.8810,1.98,17.94,1111122 
SCCF RECON,ioos:station:SCCF:53:1,2011-03-04T00:00:00Z,26.6493,-81.8810,1.949,16.68,1111122 
SCCF RECON,ioos:station:SCCF:53:1,2011-03-04T01:00:00Z,26.6493,-81.8810,1.918,17.33,1111122 
SCCF RECON,ioos:station:SCCF:53:1,2011-03-04T02:00:00Z,26.6493,-81.8810,1.893,17.45,1111122 
SCCF RECON,ioos:station:SCCF:53:1,2011-03-04T03:00:00Z,26.6493,-81.8810,1.93,17.38,1111122 
SCCF RECON,ioos:station:SCCF:53:1,2011-03-04T04:00:00Z,26.6493,-81.8810,1.98,17.52,1111122 
SCCF RECON,ioos:station:SCCF:53:1,2011-03-04T05:00:00Z,26.6493,-81.8810,2.027,17.79,1111122 
SCCF RECON,ioos:station:SCCF:53:1,2011-03-04T06:00:00Z,26.6493,-81.8810,2.07,18.06,1111122 
SCCF RECON,ioos:station:SCCF:53:1,2011-03-04T07:00:00Z,26.6493,-81.8810,2.111,18.11,1111122 
SCCF RECON,ioos:station:SCCF:53:1,2011-03-04T08:00:00Z,26.6493,-81.8810,2.12,18.03,1111122 
SCCF RECON,ioos:station:SCCF:53:1,2011-03-04T09:00:00Z,26.6493,-81.8810,2.09,18.18,1111122 
SCCF RECON,ioos:station:SCCF:53:1,2011-03-04T10:00:00Z,26.6493,-81.8810,2.04,18.18,1111122 
SCCF RECON,ioos:station:SCCF:53:1,2011-03-04T11:00:00Z,26.6493,-81.8810,2.0,17.67,1111122 
SCCF RECON,ioos:station:SCCF:53:1,2011-03-04T12:00:00Z,26.6493,-81.8810,1.96,18.13,1111122 
SCCF RECON,ioos:station:SCCF:53:1,2011-03-04T13:00:00Z,26.6493,-81.8810,1.923,17.93,1111122 
SCCF RECON,ioos:station:SCCF:53:1,2011-03-04T14:00:00Z,26.6493,-81.8810,1.89,17.3,1111122 
SCCF RECON,ioos:station:SCCF:53:1,2011-03-04T15:00:00Z,26.6493,-81.8810,1.86,17.93,1111122 
SCCF RECON,ioos:station:SCCF:53:1,2011-03-04T16:00:00Z,26.6493,-81.8810,1.86,16.58,1111122 
SCCF RECON,ioos:station:SCCF:53:1,2011-03-04T17:00:00Z,26.6493,-81.8810,1.894,16.53,1111122 
SCCF RECON,ioos:station:SCCF:53:1,2011-03-04T18:00:00Z,26.6493,-81.8810,1.937,16.61,1111122 
SCCF RECON,ioos:station:SCCF:53:1,2011-03-04T19:00:00Z,26.6493,-81.8810,1.982,17.64,1111122 
SCCF RECON,ioos:station:SCCF:53:1,2011-03-04T20:00:00Z,26.6493,-81.8810,2.014,18.27,1111122 
SCCF RECON,ioos:station:SCCF:53:1,2011-03-04T21:00:00Z,26.6493,-81.8810,2.054,18.45,1111122 
SCCF RECON,ioos:station:SCCF:53:1,2011-03-04T22:00:00Z,26.6493,-81.8810,2.071,18.36,1111122 
SCCF RECON,ioos:station:SCCF:53:1,2011-03-04T23:00:00Z,26.6493,-81.8810,2.05,18.37,1111122 
SCCF RECON,ioos:station:SCCF:53:1,2011-03-05T00:00:00Z,26.6493,-81.8810,2.011,18.46,1111122 
SCCF RECON,ioos:station:SCCF:53:1,2011-03-05T01:00:00Z,26.6493,-81.8810,1.99,17.41,1111122 
SCCF RECON,ioos:station:SCCF:53:1,2011-03-05T02:00:00Z,26.6493,-81.8810,1.97,17.47,1111122 
SCCF RECON,ioos:station:SCCF:53:1,2011-03-05T03:00:00Z,26.6493,-81.8810,1.97,17.91,1111122 
SCCF RECON,ioos:station:SCCF:53:1,2011-03-05T04:00:00Z,26.6493,-81.8810,2.01,18.24,1111122 
SCCF RECON,ioos:station:SCCF:53:1,2011-03-05T05:00:00Z,26.6493,-81.8810,2.067,18.12,1111122 
SCCF RECON,ioos:station:SCCF:53:1,2011-03-05T06:00:00Z,26.6493,-81.8810,2.116,18.32,1111122 
SCCF RECON,ioos:station:SCCF:53:1,2011-03-05T07:00:00Z,26.6493,-81.8810,2.17,18.46,1111122 
SCCF RECON,ioos:station:SCCF:53:1,2011-03-05T08:00:00Z,26.6493,-81.8810,2.218,18.64,1111122 
SCCF RECON,ioos:station:SCCF:53:1,2011-03-05T09:00:00Z,26.6493,-81.8810,2.23,18.67,1111122 
SCCF RECON,ioos:station:SCCF:53:1,2011-03-05T10:00:00Z,26.6493,-81.8810,2.19,18.73,1111122 
SCCF RECON,ioos:station:SCCF:53:1,2011-03-05T11:00:00Z,26.6493,-81.8810,2.15,18.63,1111122 
SCCF RECON,ioos:station:SCCF:53:1,2011-03-05T12:00:00Z,26.6493,-81.8810,2.1,18.89,1111122 
SCCF RECON,ioos:station:SCCF:53:1,2011-03-05T13:00:00Z,26.6493,-81.8810,2.057,19.07,1111122 
SCCF RECON,ioos:station:SCCF:53:1,2011-03-05T14:00:00Z,26.6493,-81.8810,2.01,19.24,1111122 
SCCF RECON,ioos:station:SCCF:53:1,2011-03-05T15:00:00Z,26.6493,-81.8810,1.969,19.39,1111122 
SCCF RECON,ioos:station:SCCF:53:1,2011-03-05T16:00:00Z,26.6493,-81.8810,1.95,19.33,1111122 
SCCF RECON,ioos:station:SCCF:53:1,2011-03-05T17:00:00Z,26.6493,-81.8810,1.995,19.1,1111122 
SCCF RECON,ioos:station:SCCF:53:1,2011-03-05T18:00:00Z,26.6493,-81.8810,2.05,18.61,1111122 
SCCF RECON,ioos:station:SCCF:53:1,2011-03-05T19:00:00Z,26.6493,-81.8810,2.103,18.84,1111122 
SCCF RECON,ioos:station:SCCF:53:1,2011-03-05T20:00:00Z,26.6493,-81.8810,2.162,18.39,1111122 
SCCF RECON,ioos:station:SCCF:53:1,2011-03-05T21:00:00Z,26.6493,-81.8810,2.2,18.69,1111122 
SCCF RECON,ioos:station:SCCF:53:1,2011-03-05T22:00:00Z,26.6493,-81.8810,2.201,18.93,1111122 
SCCF RECON,ioos:station:SCCF:53:1,2011-03-05T23:00:00Z,26.6493,-81.8810,2.17,18.38,1111122 
SCCF RECON,ioos:station:SCCF:53:1,2011-03-06T00:00:00Z,26.6493,-81.8810,2.12,18.06,1111122 
SCCF RECON,ioos:station:SCCF:53:1,2011-03-06T01:00:00Z,26.6493,-81.8810,2.08,17.52,1111122 
SCCF RECON,ioos:station:SCCF:53:1,2011-03-06T02:00:00Z,26.6493,-81.8810,2.04,16.62,1111122 
SCCF RECON,ioos:station:SCCF:53:1,2011-03-06T03:00:00Z,26.6493,-81.8810,2.0,17.2,1111122 
SCCF RECON,ioos:station:SCCF:53:1,2011-03-06T04:00:00Z,26.6493,-81.8810,2.0,17.37,1111122 
SCCF RECON,ioos:station:SCCF:53:1,2011-03-06T05:00:00Z,26.6493,-81.8810,2.05,18.06,1111122 
SCCF RECON,ioos:station:SCCF:53:1,2011-03-06T06:00:00Z,26.6493,-81.8810,2.11,17.7,1111122 
SCCF RECON,ioos:station:SCCF:53:1,2011-03-06T07:00:00Z,26.6493,-81.8810,2.16,18.0,1111122 
SCCF RECON,ioos:station:SCCF:53:1,2011-03-06T08:00:00Z,26.6493,-81.8810,2.21,18.28,1111122 
SCCF RECON,ioos:station:SCCF:53:1,2011-03-06T09:00:00Z,26.6493,-81.8810,2.24,18.25,1111122 
SCCF RECON,ioos:station:SCCF:53:1,2011-03-06T10:00:00Z,26.6493,-81.8810,2.24,18.73,1111122 
SCCF RECON,ioos:station:SCCF:53:1,2011-03-06T11:00:00Z,26.6493,-81.8810,2.19,18.21,1111122 
SCCF RECON,ioos:station:SCCF:53:1,2011-03-06T12:00:00Z,26.6493,-81.8810,2.148,18.03,1111122 
SCCF RECON,ioos:station:SCCF:53:1,2011-03-06T13:00:00Z,26.6493,-81.8810,2.1,17.32,1111122 
SCCF RECON,ioos:station:SCCF:53:1,2011-03-06T14:00:00Z,26.6493,-81.8810,2.06,17.94,1111122 
SCCF RECON,ioos:station:SCCF:53:1,2011-03-06T15:00:00Z,26.6493,-81.8810,2.02,17.59,1111122 
SCCF RECON,ioos:station:SCCF:53:1,2011-03-06T16:00:00Z,26.6493,-81.8810,2.022,17.55,1111122 
SCCF RECON,ioos:station:SCCF:53:1,2011-03-06T17:00:00Z,26.6493,-81.8810,2.059,17.31,1111122 
SCCF RECON,ioos:station:SCCF:53:1,2011-03-06T18:00:00Z,26.6493,-81.8810,2.111,17.32,1111122 
SCCF RECON,ioos:station:SCCF:53:1,2011-03-06T19:00:00Z,26.6493,-81.8810,2.163,17.12,1111122 
SCCF RECON,ioos:station:SCCF:53:1,2011-03-06T20:00:00Z,26.6493,-81.8810,2.22,17.24,1111122 
SCCF RECON,ioos:station:SCCF:53:1,2011-03-06T21:00:00Z,26.6493,-81.8810,2.25,17.39,1111122 
SCCF RECON,ioos:station:SCCF:53:1,2011-03-06T22:00:00Z,26.6493,-81.8810,2.231,16.79,1111122 
SCCF RECON,ioos:station:SCCF:53:1,2011-03-06T23:00:00Z,26.6493,-81.8810,2.183,16.7,1111122 
SCCF RECON,ioos:station:SCCF:53:1,2011-03-07T00:00:00Z,26.6493,-81.8810,2.14,16.53,1111122 
SCCF RECON,ioos:station:SCCF:53:1,2011-03-07T01:00:00Z,26.6493,-81.8810,2.09,16.39,1111122 
SCCF RECON,ioos:station:SCCF:53:1,2011-03-07T02:00:00Z,26.6493,-81.8810,2.049,16.03,1111122 
SCCF RECON,ioos:station:SCCF:53:1,2011-03-07T03:00:00Z,26.6493,-81.8810,2.0,15.67,1111122 
SCCF RECON,ioos:station:SCCF:53:1,2011-03-07T04:00:00Z,26.6493,-81.8810,1.96,15.65,1111122 
SCCF RECON,ioos:station:SCCF:53:1,2011-03-07T05:00:00Z,26.6493,-81.8810,1.93,15.2,1111122 
SCCF RECON,ioos:station:SCCF:53:1,2011-03-07T06:00:00Z,26.6493,-81.8810,1.95,16.27,1111122 
SCCF RECON,ioos:station:SCCF:53:1,2011-03-07T07:00:00Z,26.6493,-81.8810,2.0,16.78,1111122 
SCCF RECON,ioos:station:SCCF:53:1,2011-03-07T08:00:00Z,26.6493,-81.8810,2.04,16.71,1111122 
SCCF RECON,ioos:station:SCCF:53:1,2011-03-07T09:00:00Z,26.6493,-81.8810,2.09,17.15,1111122 
SCCF RECON,ioos:station:SCCF:53:1,2011-03-07T10:00:00Z,26.6493,-81.8810,2.11,17.05,1111122 
SCCF RECON,ioos:station:SCCF:53:1,2011-03-07T11:00:00Z,26.6493,-81.8810,2.08,17.18,1111122 
SCCF RECON,ioos:station:SCCF:53:1,2011-03-07T12:00:00Z,26.6493,-81.8810,2.04,17.13,1111122 
SCCF RECON,ioos:station:SCCF:53:1,2011-03-07T13:00:00Z,26.6493,-81.8810,2.01,17.33,1111122 
SCCF RECON,ioos:station:SCCF:53:1,2011-03-07T14:00:00Z,26.6493,-81.8810,1.96,17.32,1111122 
SCCF RECON,ioos:station:SCCF:53:1,2011-03-07T15:00:00Z,26.6493,-81.8810,1.929,16.74,1111122 
SCCF RECON,ioos:station:SCCF:53:1,2011-03-07T16:00:00Z,26.6493,-81.8810,1.9,17.7,1111122 
SCCF RECON,ioos:station:SCCF:53:1,2011-03-07T17:00:00Z,26.6493,-81.8810,1.901,18.01,1111122 
SCCF RECON,ioos:station:SCCF:53:1,2011-03-07T18:00:00Z,26.6493,-81.8810,1.95,18.06,1111122 
SCCF RECON,ioos:station:SCCF:53:1,2011-03-07T20:00:00Z,26.6493,-81.8810,2.04,17.59,1111122 
SCCF RECON,ioos:station:SCCF:53:1,2011-03-07T21:00:00Z,26.6493,-81.8810,2.094,17.6,1111122 
SCCF RECON,ioos:station:SCCF:53:1,2011-03-07T22:00:00Z,26.6493,-81.8810,2.133,18.19,1111122 
SCCF RECON,ioos:station:SCCF:53:1,2011-03-07T23:00:00Z,26.6493,-81.8810,2.134,17.75,1111122 
SCCF RECON,ioos:station:SCCF:53:1,2011-03-08T00:00:00Z,26.6493,-81.8810,2.1,17.75,1111122 
SCCF RECON,ioos:station:SCCF:53:1,2011-03-08T01:00:00Z,26.6493,-81.8810,2.06,16.6,1111122 
SCCF RECON,ioos:station:SCCF:53:1,2011-03-08T02:00:00Z,26.6493,-81.8810,2.02,16.19,1111122 
SCCF RECON,ioos:station:SCCF:53:1,2011-03-08T03:00:00Z,26.6493,-81.8810,1.973,16.84,1111122 
SCCF RECON,ioos:station:SCCF:53:1,2011-03-08T04:00:00Z,26.6493,-81.8810,1.931,16.09,1111122 
SCCF RECON,ioos:station:SCCF:53:1,2011-03-08T05:00:00Z,26.6493,-81.8810,1.9,15.16,1111122 
SCCF RECON,ioos:station:SCCF:53:1,2011-03-08T06:00:00Z,26.6493,-81.8810,1.903,16.81,1111122 
SCCF RECON,ioos:station:SCCF:53:1,2011-03-08T07:00:00Z,26.6493,-81.8810,1.942,17.3,1111122 
SCCF RECON,ioos:station:SCCF:53:1,2011-03-08T08:00:00Z,26.6493,-81.8810,1.977,16.84,1111122 
SCCF RECON,ioos:station:SCCF:53:1,2011-03-08T09:00:00Z,26.6493,-81.8810,2.02,17.67,1111122 
SCCF RECON,ioos:station:SCCF:53:1,2011-03-08T10:00:00Z,26.6493,-81.8810,2.054,17.82,1111122 
SCCF RECON,ioos:station:SCCF:53:1,2011-03-08T11:00:00Z,26.6493,-81.8810,2.07,17.89,1111122 
SCCF RECON,ioos:station:SCCF:53:1,2011-03-08T12:00:00Z,26.6493,-81.8810,2.05,17.64,1111122 
SCCF RECON,ioos:station:SCCF:53:1,2011-03-08T13:00:00Z,26.6493,-81.8810,2.02,17.26,1111122 
SCCF RECON,ioos:station:SCCF:53:1,2011-03-08T14:00:00Z,26.6493,-81.8810,1.99,17.41,1111122 
SCCF RECON,ioos:station:SCCF:53:1,2011-03-08T15:00:00Z,26.6493,-81.8810,1.96,17.31,1111122 
SCCF RECON,ioos:station:SCCF:53:1,2011-03-08T16:00:00Z,26.6493,-81.8810,1.942,17.34,1111122 
SCCF RECON,ioos:station:SCCF:53:1,2011-03-08T17:00:00Z,26.6493,-81.8810,1.97,17.48,1111122 
SCCF RECON,ioos:station:SCCF:53:1,2011-03-08T18:00:00Z,26.6493,-81.8810,2.021,17.13,1111122 
SCCF RECON,ioos:station:SCCF:53:1,2011-03-08T19:00:00Z,26.6493,-81.8810,2.068,17.32,1111122 
SCCF RECON,ioos:station:SCCF:53:1,2011-03-08T20:00:00Z,26.6493,-81.8810,2.119,17.53,1111122 
SCCF RECON,ioos:station:SCCF:53:1,2011-03-08T21:00:00Z,26.6493,-81.8810,2.17,17.81,1111122 
SCCF RECON,ioos:station:SCCF:53:1,2011-03-08T22:00:00Z,26.6493,-81.8810,2.219,17.91,1111122 
SCCF RECON,ioos:station:SCCF:53:1,2011-03-08T23:00:00Z,26.6493,-81.8810,2.228,18.02,1111122 
SCCF RECON,ioos:station:SCCF:53:1,2011-03-09T00:00:00Z,26.6493,-81.8810,2.19,18.35,1111122 
SCCF RECON,ioos:station:SCCF:53:1,2011-03-09T01:00:00Z,26.6493,-81.8810,2.13,17.67,1111122 
SCCF RECON,ioos:station:SCCF:53:1,2011-03-09T02:00:00Z,26.6493,-81.8810,2.09,17.67,1111122 
SCCF RECON,ioos:station:SCCF:53:1,2011-03-09T03:00:00Z,26.6493,-81.8810,2.03,17.33,1111122 
SCCF RECON,ioos:station:SCCF:53:1,2011-03-09T04:00:00Z,26.6493,-81.8810,1.98,17.46,1111122 
SCCF RECON,ioos:station:SCCF:53:1,2011-03-09T05:00:00Z,26.6493,-81.8810,1.93,17.53,1111122 
SCCF RECON,ioos:station:SCCF:53:1,2011-03-09T06:00:00Z,26.6493,-81.8810,1.9,16.2,1111122 
SCCF RECON,ioos:station:SCCF:53:1,2011-03-09T07:00:00Z,26.6493,-81.8810,1.92,17.15,1111122 
SCCF RECON,ioos:station:SCCF:53:1,2011-03-09T08:00:00Z,26.6493,-81.8810,1.96,17.22,1111122 
SCCF RECON,ioos:station:SCCF:53:1,2011-03-09T09:00:00Z,26.6493,-81.8810,2.0,17.41,1111122 
SCCF RECON,ioos:station:SCCF:53:1,2011-03-09T10:00:00Z,26.6493,-81.8810,2.04,17.69,1111122 
SCCF RECON,ioos:station:SCCF:53:1,2011-03-09T11:00:00Z,26.6493,-81.8810,2.071,17.74,1111122 
SCCF RECON,ioos:station:SCCF:53:1,2011-03-09T12:00:00Z,26.6493,-81.8810,2.083,17.82,1111122 
SCCF RECON,ioos:station:SCCF:53:1,2011-03-09T13:00:00Z,26.6493,-81.8810,2.07,18.03,1111122 
SCCF RECON,ioos:station:SCCF:53:1,2011-03-09T14:00:00Z,26.6493,-81.8810,2.06,18.08,1111122 
SCCF RECON,ioos:station:SCCF:53:1,2011-03-09T15:00:00Z,26.6493,-81.8810,2.047,17.94,1111122 
SCCF RECON,ioos:station:SCCF:53:1,2011-03-09T16:00:00Z,26.6493,-81.8810,2.031,17.82,1111122 
SCCF RECON,ioos:station:SCCF:53:1,2011-03-09T17:00:00Z,26.6493,-81.8810,2.048,17.95,1111122 
SCCF RECON,ioos:station:SCCF:53:1,2011-03-09T18:00:00Z,26.6493,-81.8810,2.089,17.27,1111122 
SCCF RECON,ioos:station:SCCF:53:1,2011-03-09T19:00:00Z,26.6493,-81.8810,2.14,17.2,1111122 
SCCF RECON,ioos:station:SCCF:53:1,2011-03-09T20:00:00Z,26.6493,-81.8810,2.2,17.81,1111122 
SCCF RECON,ioos:station:SCCF:53:1,2011-03-09T21:00:00Z,26.6493,-81.8810,2.268,18.01,1111122 
SCCF RECON,ioos:station:SCCF:53:1,2011-03-09T22:00:00Z,26.6493,-81.8810,2.334,18.13,1111122 
SCCF RECON,ioos:station:SCCF:53:1,2011-03-09T23:00:00Z,26.6493,-81.8810,2.38,18.48,1111122 
SCCF RECON,ioos:station:SCCF:53:1,2011-03-10T00:00:00Z,26.6493,-81.8810,2.384,18.32,1111122 
SCCF RECON,ioos:station:SCCF:53:1,2011-03-10T01:00:00Z,26.6493,-81.8810,2.336,17.93,1111122 
SCCF RECON,ioos:station:SCCF:53:1,2011-03-10T02:00:00Z,26.6493,-81.8810,2.28,17.62,1111122 
SCCF RECON,ioos:station:SCCF:53:1,2011-03-10T03:00:00Z,26.6493,-81.8810,2.222,17.12,1111122 
SCCF RECON,ioos:station:SCCF:53:1,2011-03-10T04:00:00Z,26.6493,-81.8810,2.16,16.88,1111122 
SCCF RECON,ioos:station:SCCF:53:1,2011-03-10T05:00:00Z,26.6493,-81.8810,2.109,16.51,1111122 
SCCF RECON,ioos:station:SCCF:53:1,2011-03-10T06:00:00Z,26.6493,-81.8810,2.05,16.3,1111122 
SCCF RECON,ioos:station:SCCF:53:1,2011-03-10T07:00:00Z,26.6493,-81.8810,2.03,16.58,1111122 
SCCF RECON,ioos:station:SCCF:53:1,2011-03-10T08:00:00Z,26.6493,-81.8810,2.044,16.71,1111122 
SCCF RECON,ioos:station:SCCF:53:1,2011-03-10T09:00:00Z,26.6493,-81.8810,2.08,17.19,1111122 
SCCF RECON,ioos:station:SCCF:53:1,2011-03-10T10:00:00Z,26.6493,-81.8810,2.107,17.04,1111122 
SCCF RECON,ioos:station:SCCF:53:1,2011-03-10T11:00:00Z,26.6493,-81.8810,2.12,17.28,1111122 
SCCF RECON,ioos:station:SCCF:53:1,2011-03-10T12:00:00Z,26.6493,-81.8810,2.1,17.21,1111122 
SCCF RECON,ioos:station:SCCF:53:1,2011-03-10T13:00:00Z,26.6493,-81.8810,2.1,17.22,1111122 
SCCF RECON,ioos:station:SCCF:53:1,2011-03-10T14:00:00Z,26.6493,-81.8810,2.083,16.75,1111122 
SCCF RECON,ioos:station:SCCF:53:1,2011-03-10T15:00:00Z,26.6493,-81.8810,2.1,16.34,1111122 
SCCF RECON,ioos:station:SCCF:53:1,2011-03-10T16:00:00Z,26.6493,-81.8810,2.078,15.68,1111122 
SCCF RECON,ioos:station:SCCF:53:1,2011-03-10T17:00:00Z,26.6493,-81.8810,2.05,16.53,1111122 
SCCF RECON,ioos:station:SCCF:53:1,2011-03-10T18:00:00Z,26.6493,-81.8810,2.03,16.77,1111122 
SCCF RECON,ioos:station:SCCF:53:1,2011-03-10T19:00:00Z,26.6493,-81.8810,2.01,16.75,1111122 
SCCF RECON,ioos:station:SCCF:53:1,2011-03-10T20:00:00Z,26.6493,-81.8810,2.08,16.91,1111122 
SCCF RECON,ioos:station:SCCF:53:1,2011-03-10T21:00:00Z,26.6493,-81.8810,2.151,16.77,1111122 
SCCF RECON,ioos:station:SCCF:53:1,2011-03-10T22:00:00Z,26.6493,-81.8810,2.209,17.57,1111122 
SCCF RECON,ioos:station:SCCF:53:1,2011-03-10T23:00:00Z,26.6493,-81.8810,2.268,18.31,1111122 
SCCF RECON,ioos:station:SCCF:53:1,2011-03-11T00:00:00Z,26.6493,-81.8810,2.272,18.11,1111122 
SCCF RECON,ioos:station:SCCF:53:1,2011-03-11T01:00:00Z,26.6493,-81.8810,2.25,17.82,1111122 
SCCF RECON,ioos:station:SCCF:53:1,2011-03-11T02:00:00Z,26.6493,-81.8810,2.2,17.01,1111122 
SCCF RECON,ioos:station:SCCF:53:1,2011-03-11T03:00:00Z,26.6493,-81.8810,2.15,16.15,1111122 
SCCF RECON,ioos:station:SCCF:53:1,2011-03-11T04:00:00Z,26.6493,-81.8810,2.092,15.72,1111122 
SCCF RECON,ioos:station:SCCF:53:1,2011-03-11T05:00:00Z,26.6493,-81.8810,2.04,15.49,1111122 
SCCF RECON,ioos:station:SCCF:53:1,2011-03-11T06:00:00Z,26.6493,-81.8810,1.99,16.14,1111122 
SCCF RECON,ioos:station:SCCF:53:1,2011-03-11T07:00:00Z,26.6493,-81.8810,1.95,17.97,1111122 
SCCF RECON,ioos:station:SCCF:53:1,2011-03-11T08:00:00Z,26.6493,-81.8810,1.9,18.4,1111122 
SCCF RECON,ioos:station:SCCF:53:1,2011-03-11T09:00:00Z,26.6493,-81.8810,1.88,18.02,1111122 
SCCF RECON,ioos:station:SCCF:53:1,2011-03-11T10:00:00Z,26.6493,-81.8810,1.88,18.62,1111122 
SCCF RECON,ioos:station:SCCF:53:1,2011-03-11T11:00:00Z,26.6493,-81.8810,1.879,18.65,1111122 
SCCF RECON,ioos:station:SCCF:53:1,2011-03-11T12:00:00Z,26.6493,-81.8810,1.886,18.19,1111122 
SCCF RECON,ioos:station:SCCF:53:1,2011-03-11T13:00:00Z,26.6493,-81.8810,1.894,16.76,1111122 
SCCF RECON,ioos:station:SCCF:53:1,2011-03-11T14:00:00Z,26.6493,-81.8810,1.87,15.85,1111122 
SCCF RECON,ioos:station:SCCF:53:1,2011-03-11T15:00:00Z,26.6493,-81.8810,1.86,15.84,1111122 
SCCF RECON,ioos:station:SCCF:53:1,2011-03-11T16:00:00Z,26.6493,-81.8810,1.84,15.01,1111122 
SCCF RECON,ioos:station:SCCF:53:1,2011-03-11T17:00:00Z,26.6493,-81.8810,1.847,15.18,1111122 
SCCF RECON,ioos:station:SCCF:53:1,2011-03-11T18:00:00Z,26.6493,-81.8810,1.88,16.06,1111122 
SCCF RECON,ioos:station:SCCF:53:1,2011-03-11T19:00:00Z,26.6493,-81.8810,1.91,17.2,1111122 